Flag Weather past 2 weeks in Greater Sudbury, Ontario, Canada

Now
18 °F

Passing clouds.


Feels Like: 11 °F
Forecast: 17 / 26 °F
Wind: 5 mph from Northeast

Location: Sudbury

Current Time: Nov 26, 2014 at 9:18:21 AM

Latest Report: Nov 26, 2014 at 8:00 AM


Visibility: 20 mi

Pressure: 30.25 "Hg

Humidity: 79%

Dew point: 12 °F

Location of Greater SudburyLocation

Historic Weather in Greater Sudbury — Graph

°F

Greater Sudbury temperature yesterday

Maximum temperature yesterday: 32 °F (at 12:00 AM)
Minimum temperature yesterday: 14 °F (at 9:00 PM)
Average temperature yesterday: 24 °F

Past Weeks' High & Low Weather Summary

 TemperatureHumidityPressure
High46 °F (Nov 24, 10:00 AM)100% (Nov 11, 6:00 PM)30.32 "Hg (Nov 11, 6:00 PM)
Low0 °F (Nov 21, 6:00 AM)54% (Nov 14, 1:00 PM)28.90 "Hg (Nov 24, 10:00 AM)
Average23 °F86%29.81 "Hg
* Reported Nov 11 8:00 AM — Nov 26 8:00 AM, Greater Sudbury, Weather by CustomWeather, © 2014

Note: Actual official high and low records may vary slightly from our data, if they occured in-between our weather recording intervals... More about our weather records

Advertising

Greater Sudbury weather history for previous 24 hours

 ConditionsComfort  
Time TempWeatherWind HumidityBarometerVisibility
8:00 AM
Nov 26
18 °FPassing clouds.5 mph79%30.25 "Hg20 mi
7:00 AM18 °FPassing clouds.2 mph79%30.24 "Hg20 mi
6:00 AM16 °FPassing clouds.No wind100%30.24 "Hg15 mi
5:00 AM16 °FOvercast.No wind93%30.24 "Hg15 mi
2:00 AM16 °FPassing clouds.No wind93%30.22 "Hg15 mi
1:00 AM18 °FLight snow. Passing clouds.6 mph86%30.18 "Hg15 mi
12:49 AM19 °FLight snow. Overcast.6 mph79%30.17 "Hg15 mi
12:00 AM18 °FOvercast.5 mph86%30.17 "Hg15 mi
11:00 PM
Nov 25
18 °FPassing clouds.5 mph86%30.16 "Hg15 mi
10:00 PM16 °FPassing clouds.6 mph86%30.11 "Hg15 mi
9:00 PM14 °FPassing clouds.6 mph92%30.07 "Hg15 mi
8:00 PM18 °FPassing clouds.7 mph86%30.03 "Hg15 mi
7:00 PM19 °FPassing clouds.6 mph86%30.00 "Hg15 mi
6:00 PM21 °FPartly cloudy.6 mph86%29.97 "Hg10 mi
5:00 PM21 °FOvercast.6 mph93%29.91 "Hg10 mi
4:00 PM23 °FLight snow. Overcast.12 mph86%29.86 "Hg3 mi
3:00 PM23 °FLight snow. Ice fog.12 mph86%29.80 "Hg2 mi
2:00 PM23 °FLight snow. Ice fog.12 mph93%29.75 "Hg2 mi
1:00 PM23 °FLight snow. Ice fog.10 mph93%29.72 "Hg1 mi
12:00 PM25 °FLight snow. Ice fog.8 mph93%29.68 "Hg1 mi
11:00 AM25 °FLight snow. Low clouds.9 mph93%29.66 "Hg6 mi
10:00 AM27 °FLight snow. Low clouds.10 mph86%29.63 "Hg15 mi
9:49 AM27 °FLight snow. Mostly cloudy.7 mph86%29.62 "Hg10 mi
9:00 AM27 °FLight snow. More clouds than sun.7 mph93%29.59 "Hg1 mi
Weather by CustomWeather, © 2014

See weather overviewHow to use our weather pages